SCP
1 1 1 1 1 1 1 1 0 0 0 0 0 0 0 0 0 0 0 0 0 0 0 0 0 0 0 0 0 0 1 1 1 1 1 1 1 1
1 1 1 1 1 1 1 1 1 0 0 0 0 0 1 0 0 0 0 0 0 0 0 0 0 0 0 0 0 0 0 0 0 0 0 0 1 1
0 0 1 1 1 1 1 1 1 1 0 0 0 0 1 1 1 1 0 0 0 0 0 0 0 0 0 0 0 0 0 0 0 0 0 0 0 0
0 0 0 1 1 1 1 1 1 1 0 0 0 0 0 0 0 0 0 0 0 0 0 0 0 0 0 0 0 0 0 0 0 0 0 0 0 0
0 0 1 1 1 1 1 0 0 0 0 0 0 0 0 0 0 0 0 0 0 0 0 0 0 0 0 0 0 0 0 0 0 0 0 0 0 0
0 0 1 1 1 1 1 0 0 0 0 0 0 0 0 0 0 0 0 0 0 0 0 0 0 0 0 0 0 0 0 0 0 0 0 0 0 0
0 0 0 0 1 1 1 1 0 0 0 0 0 0 0 0 0 0 0 0 0 0 0 0 0 1 0 0 0 0 0 0 0 0 0 0 0 0
0 0 0 0 0 0 0 0 0 0 0 0 0 0 0 0 0 0 0 0 0 0 0 0 1 1 1 0 0 0 0 0 0 0 0 0 0 0
0 0 0 0 0 0 0 0 0 0 0 0 0 0 0 0 0 0 0 0 0 0 0 0 0 0 0 0 0 0 0 0 0 0 0 0 0 0
0 0 0 0 0 0 0 0 0 0 0 0 0 0 0 0 0 0 0 0 0 0 0 0 0 0 0 0 0 0 0 0 0 0 0 0 0 0
0 0 0 0 0 0 0 0 0 0 0 0 0 0 0 0 0 0 0 0 0 0 0 0 0 0 0 0 0 0 0 0 0 0 0 0 0 0
0 0 0 0 0 0 0 0 0 0 0 0 0 0 0 0 0 0 0 0 0 0 0 0 0 0 0 0 0 0 0 0 0 0 0 0 0 0
0 0 0 0 0 0 0 0 0 0 0 0 0 0 0 0 0 0 0 0 0 0 0 0 0 0 0 0 0 0 0 0 0 0 0 0 0 0
0 0 0 0 0 0 0 0 0 0 0 0 0 0 0 0 0 0 0 0 0 0 0 0 0 0 0 0 0 0 0 0 0 0 0 0 0 0
0 0 0 0 0 0 0 0 0 0 0 0 0 0 0 0 0 0 0 0 0 0 0 0 0 0 0 0 0 0 0 0 0 0 0 0 0 0
0 0 0 0 0 0 0 0 0 0 0 0 0 0 0 0 0 0 0 0 0 0 0 0 0 0 0 0 0 0 0 0 0 0 0 0 0 0
0 0 0 0 0 0 0 0 0 0 0 0 0 0 0 0 0 0 0 0 0 0 0 0 0 0 0 0 0 0 0 0 0 0 0 0 0 0
0 0 0 0 0 0 0 0 0 0 0 0 0 0 0 0 0 0 0 0 0 0 0 0 0 0 0 0 0 0 0 0 0 0 0 0 0 0
0 0 0 0 0 0 0 0 0 0 0 0 0 0 0 0 0 0 0 0 0 0 0 0 0 0 0 0 0 0 0 0 0 0 0 0 0 0
0 0 0 0 0 0 0 0 0 0 0 0 0 0 0 0 0 0 0 0 0 0 0 0 0 0 0 0 0 0 0 0 0 0 0 0 0 0
0 0 0 0 0 0 0 0 0 0 0 0 0 0 0 0 0 0 0 0 0 0 0 0 0 0 0 0 0 0 0 0 0 0 0 0 0 0
0 0 0 0 0 0 0 0 0 0 0 0 0 0 0 0 0 0 0 0 0 0 0 0 0 0 0 0 0 0 0 0 0 0 0 0 0 0
0 0 0 0 0 0 0 0 0 0 0 0 0 0 0 0 0 0 0 0 0 0 0 0 0 0 0 0 0 0 0 0 0 0 0 0 0 0
Wind_Speed
6 6 5 4 4 4 3 4 4 3 3 3 2 2 2 3 4 4 4 5 7 8 8 8 9 9 9 9 9 8 8 8 8 8 8 8 9 9
4 5 5 3 3 3 3 3 3 4 3 2 2 2 2 2 2 3 3 4 4 5 5 6 7 7 8 8 8 8 8 8 8 8 8 8 8 9
4 5 5 4 3 3 3 3 3 3 4 3 1 2 1 1 1 1 1 1 1 2 3 4 4 5 6 6 7 7 7 8 8 8 8 8 8 8
5 5 5 4 4 3 3 3 3 3 3 3 2 1 1 2 2 2 1 1 1 1 0 1 2 3 3 4 5 5 5 5 6 6 6 7 7 7
4 4 4 4 4 3 3 3 2 2 2 2 1 1 1 1 2 2 2 2 1 1 1 0 1 1 2 2 3 3 4 4 4 4 4 4 5 5
2 2 2 3 4 3 3 2 2 2 2 1 1 1 1 1 1 1 2 2 2 2 2 1 1 1 1 1 1 2 2 3 3 3 2 2 3 4
2 2 1 2 3 2 2 2 2 2 2 1 1 0 1 1 1 1 1 1 1 2 2 2 2 2 2 1 1 1 0 1 1 1 1 2 2 3
2 2 2 3 4 5 5 5 4 3 2 1 1 1 1 1 1 1 1 1 1 2 2 2 2 2 3 2 3 3 2 2 1 1 1 2 2 3
3 3 3 4 4 4 6 7 7 7 4 2 2 1 1 1 1 1 2 1 1 3 2 2 3 3 3 4 6 5 5 5 5 4 4 3 3 3
5 4 4 5 4 5 6 7 6 6 6 4 4 3 3 3 2 2 1 2 2 3 3 2 3 3 4 4 7 8 7 6 6 6 5 5 4 3
7 7 6 6 6 7 7 7 7 6 9 11 10 9 10 10 6 4 3 3 2 3 3 2 2 2 2 3 5 8 8 8 7 6 5 5 5 3
7 8 11 9 8 8 7 7 7 5 6 7 8 9 9 10 11 6 3 2 1 2 3 3 2 2 2 2 3 3 4 6 6 5 6 6 5 3
7 7 8 13 13 12 10 7 7 6 6 7 6 6 6 6 7 6 5 3 2 2 3 3 1 2 1 2 2 3 3 4 4 4 5 6 5 4
7 6 7 13 14 13 10 10 10 8 6 6 6 6 5 5 5 6 6 6 4 3 3 3 1 1 1 1 2 3 3 3 3 4 4 5 4 4
7 11 11 12 12 10 13 12 8 6 5 6 5 4 4 4 4 4 5 5 5 5 6 5 3 2 1 1 2 3 3 3 4 4 4 4 4 4
7 10 12 13 11 10 9 8 6 6 5 5 4 3 3 4 5 5 4 4 4 5 6 7 5 3 1 1 2 3 3 4 4 5 4 4 4 3
6 6 6 6 7 6 6 6 6 5 5 4 4 4 4 4 4 4 4 4 4 4 5 6 6 4 2 1 2 3 4 4 4 5 4 4 4 4
7 6 6 6 5 5 5 5 5 5 5 4 4 4 4 4 4 4 4 4 4 4 5 5 5 4 3 2 2 4 4 5 5 5 4 4 4 4
7 6 5 5 4 4 4 4 4 4 4 4 4 4 3 3 3 4 4 4 4 4 4 4 4 4 5 5 4 3 5 5 5 4 4 4 4 5
6 5 4 4 4 4 4 3 3 4 4 4 4 4 3 3 4 4 4 4 4 4 4 4 4 4 4 4 4 4 5 5 5 5 5 4 3 3
5 5 4 3 3 3 3 3 3 3 3 3 3 3 3 3 3 3 3 4 3 4 5 5 5 6 3 2 3 4 5 5 5 4 5 4 4 4
4 4 3 3 3 3 3 3 3 3 3 3 3 3 3 3 3 4 3 3 3 4 4 4 5 4 3 3 4 5 5 6 5 5 4 4 4 4
3 3 3 3 3 2 2 3 3 3 3 3 3 3 3 3 3 3 3 3 3 4 4 4 4 4 3 3 4 4 6 7 6 6 5 7 6 5
Wind_Direction
212 208 212 215 207 209 202 193 194 228 259 263 264 264 249 236 246 237 238 240 231 229 230 233 236 235 234 234 236 237 241 243 245 247 248 250 252 254
207 205 210 212 208 207 207 204 203 209 238 259 259 282 287 266 233 228 230 234 235 231 231 234 236 236 234 233 232 234 236 238 242 246 248 249 249 251
203 202 212 206 204 207 202 199 203 197 229 266 282 308 312 310 320 285 251 235 245 232 230 231 236 238 236 236 237 236 237 239 240 243 246 249 250 251
202 199 212 204 202 202 197 204 206 202 215 249 285 328 325 325 336 343 334 317 294 11 211 246 253 251 241 237 237 237 237 236 237 241 245 247 250 255
197 200 208 196 201 198 195 201 205 195 194 215 262 322 328 342 350 352 357 344 353 30 42 348 314 275 247 232 234 236 237 233 230 230 238 249 257 262
147 168 187 194 201 197 197 197 179 161 164 182 211 293 315 326 353 338 342 348 350 2 2 10 1 337 290 256 247 243 239 234 232 230 237 254 264 269
103 104 111 118 125 140 151 162 157 151 152 155 154 60 343 339 317 308 315 330 352 360 339 351 351 353 350 338 324 311 235 239 247 248 252 264 274 277
105 91 80 75 87 92 95 102 115 129 135 120 98 82 8 345 331 339 340 352 345 2 356 353 357 352 359 16 23 42 49 38 26 8 335 318 308 299
78 74 73 69 78 85 83 80 75 72 87 115 99 57 34 354 14 39 33 32 8 350 355 354 358 358 2 27 33 44 45 42 38 35 26 11 352 330
62 71 81 69 67 83 86 80 70 57 59 69 77 58 49 36 31 42 44 55 41 19 12 22 4 4 9 25 37 41 40 38 37 36 28 17 4 355
55 55 67 74 70 88 93 88 75 61 60 65 66 64 59 53 50 54 45 50 31 18 14 19 3 360 5 20 31 35 37 37 33 26 20 11 1 345
62 54 54 64 70 80 89 90 84 68 64 62 55 49 49 47 44 44 38 46 45 18 6 3 358 360 355 4 4 10 23 25 22 17 11 3 355 345
71 60 53 62 67 66 70 74 81 83 73 68 60 50 43 40 36 35 34 41 45 32 359 353 353 360 348 317 333 355 6 4 3 3 3 355 343 336
76 68 63 64 66 64 67 70 73 75 73 66 58 46 37 32 26 29 36 42 45 39 1 4 3 347 333 321 328 341 347 358 359 355 352 347 339 331
79 78 71 66 66 63 59 59 59 62 67 67 60 46 29 20 19 24 29 33 39 37 30 24 20 358 342 320 326 333 334 342 352 349 346 345 339 335
79 73 68 63 63 59 53 50 51 54 62 64 58 41 30 33 33 24 24 19 27 19 15 16 13 5 355 341 328 332 335 328 335 338 333 331 337 341
87 69 60 57 56 53 51 49 47 46 50 48 49 46 39 37 31 23 27 29 31 13 2 0 2 3 346 317 342 347 339 335 334 335 327 328 338 348
80 72 66 64 63 59 56 50 44 42 40 45 47 44 39 34 30 26 27 28 23 12 3 355 352 358 12 42 7 339 341 337 335 334 329 323 333 351
78 77 73 68 64 58 54 52 44 34 33 40 41 34 31 31 30 24 21 20 15 8 1 357 2 5 1 355 1 9 340 333 331 334 337 328 326 338
73 77 73 66 61 55 49 44 40 36 35 34 31 27 25 27 26 21 18 11 3 357 356 2 5 358 345 330 324 329 340 332 329 329 334 329 320 311
73 71 67 61 54 49 45 42 39 34 30 27 25 21 18 21 20 13 9 4 360 356 352 351 339 322 299 295 313 335 344 344 332 323 326 324 328 333
76 72 63 58 51 46 40 37 35 31 26 25 17 12 10 13 12 6 2 359 355 349 338 336 340 346 357 354 346 339 338 344 349 346 345 340 331 332
80 75 67 54 44 38 35 33 31 23 17 12 8 4 5 8 3 360 358 357 350 350 348 347 352 357 358 351 345 342 346 349 349 353 360 1 353 335